User: anonymous   Login
Location: Cronhütte
(48.9135°N, 9.6869°E)
Time: 21:21:40
(UTC+00:00)
Language:

Aureole 3 - Orbit

View from above orbital plane
View from above orbital plane
View from above satellite
View from above satellite

Ground track
Ground track

The orbit data is extracted from the following two-line orbital elements,

1 12848U 81094A   24197.54429373  .00005676  00000-0  30188-3 0  9992
2 12848  82.4756 199.9839 0523434 244.6290 109.9845 14.42157385158463
Epoch (UTC): 15 July 2024 13:03:46
Eccentricity: 0.0523434
inclination: 82.4756°
perigee height: 378 km
apogee height: 1124 km
right ascension of ascending node: 199.9839°
argument of perigee: 244.6290°
revolutions per day: 14.42157385
mean anomaly at epoch: 109.9845°
orbit number at epoch: 15846

The dashed part of the orbit path shows where the satellite is in the earth's shadow,  

DLR